Change the Weather History Date:

Monday, February 25, 2013

  Actual Average Record
Temperature  
Mean Temperature 34 °F 39 °F  
Max Temperature 36 °F 50 °F 81 °F (1986)
Min Temperature 32 °F 28 °F -3 °F (1913)
Degree Days  
Heating Degree Days 31 26  
Month to date heating degree days 760 748  
Since 1 July heating degree days 3525 3764  
Cooling Degree Days 0 0  
Month to date cooling degree days 0 0  
Year to date cooling degree days 0 0  
Moisture  
Dew Point 29 °F    
Average Humidity 82    
Maximum Humidity 89    
Minimum Humidity 75    
Precipitation  
Precipitation 0.23 in 0.04 in 0.39 in (1993)
Month to date precipitation 1.41 1.02  
Year to date precipitation 2.29 1.65  
Sea Level Pressure  
Sea Level Pressure 29.92 in    
Wind  
Wind Speed 17 mph (North)    
Max Wind Speed 26 mph    
Max Gust Speed 35 mph    
Visibility 3 miles    
Events Rain , Snow    
T = Trace of Precipitation, MM = Missing Value Source: NWS Daily Summary

Daily Weather History Graph

Daily Weather History Graph

Search for Another Location

Airport or City:

Trip Planner

Search our weather history database for the weather conditions in past years. The results will help you decide how hot, cold, wet, or windy it might be!

Date:

Astronomy

Feb. 25, 2013 Rise Set
Actual Time 7:08 AM CST 6:19 PM CST
Civil Twilight 6:41 AM CST 6:46 PM CST
Nautical Twilight 6:10 AM CST 7:17 PM CST
Astronomical Twilight 5:39 AM CST 7:48 PM CST
Moon 6:33 PM CST (2/25) 6:39 AM CST (2/25)
Length of Visible Light 12h 04m
Length of Day
11h 11m
Full, 100% of the Moon is Illuminated
Feb 25
Full
Feb 25
Full
Mar 4
Last Quarter
Mar 11
New
Mar 19
First Quarter

Hourly Weather History & Observations

Time (CST) Temp. Windchill Dew Point Humidity Pressure Visibility Wind Dir Wind Speed Gust Speed Precip Events Conditions
12:39 AM 33.8 °F 25.3 °F 30.2 °F 87% 29.97 in 2.0 mi North 11.5 mph - 0.00 in Snow Light Snow
12:51 AM 33.8 °F 25.3 °F 30.2 °F 87% 29.96 in 1.2 mi North 11.5 mph - 0.00 in Snow Light Snow
12:53 AM 33.1 °F 23.9 °F 30.9 °F 92% 29.98 in 1.2 mi North 12.7 mph - 0.00 in   Overcast
1:05 AM 33.8 °F 24.8 °F 30.2 °F 87% 29.94 in 1.0 mi North 12.7 mph - N/A   Overcast
1:25 AM 33.8 °F 25.3 °F 30.2 °F 87% 29.96 in 1.8 mi North 11.5 mph - 0.01 in   Overcast
1:53 AM 33.1 °F 23.0 °F 30.9 °F 92% 29.98 in 1.8 mi North 15.0 mph - 0.01 in   Overcast
2:02 AM 33.8 °F 23.9 °F 30.2 °F 87% 29.96 in 2.0 mi North 15.0 mph - N/A   Overcast
2:26 AM 33.8 °F 25.3 °F 30.2 °F 87% 29.94 in 1.5 mi NNE 11.5 mph - N/A   Overcast
2:53 AM 33.1 °F 24.9 °F 30.9 °F 92% 29.97 in 1.8 mi NNE 10.4 mph - 0.01 in   Overcast
3:53 AM 33.1 °F 24.4 °F 30.9 °F 92% 29.98 in 1.0 mi North 11.5 mph - 0.01 in   Overcast
4:53 AM 33.1 °F 23.0 °F 30.0 °F 89% 29.97 in 1.8 mi NNE 15.0 mph - 0.01 in   Overcast
5:53 AM 33.1 °F 22.6 °F 30.0 °F 89% 29.97 in 1.5 mi NNE 16.1 mph - 0.01 in   Overcast
6:53 AM 33.1 °F 22.6 °F 30.0 °F 89% 29.97 in 2.0 mi NNE 16.1 mph - N/A   Overcast
7:09 AM 33.8 °F 23.9 °F 30.2 °F 87% 29.95 in 1.8 mi NNE 15.0 mph 24.2 mph 0.00 in Snow Snow
7:53 AM 33.1 °F 22.2 °F 28.9 °F 85% 29.97 in 1.8 mi North 17.3 mph 21.9 mph 0.01 in   Overcast
8:07 AM 33.8 °F 23.5 °F 28.4 °F 81% 29.94 in 2.5 mi NNE 16.1 mph - 0.00 in Rain Light Rain
8:17 AM 33.8 °F 23.5 °F 28.4 °F 81% 29.95 in 3.0 mi North 16.1 mph - 0.00 in Rain Light Rain
8:53 AM 33.1 °F 23.0 °F 28.9 °F 85% 29.99 in 4.0 mi NNE 15.0 mph - 0.00 in   Overcast
9:53 AM 34.0 °F 23.4 °F 28.9 °F 82% 29.98 in 4.0 mi NNE 17.3 mph - 0.01 in   Haze
10:53 AM 35.1 °F 24.1 °F 28.9 °F 78% 29.95 in 5.0 mi North 19.6 mph 31.1 mph 0.05 in Snow Light Snow
11:53 AM 35.1 °F 25.2 °F 30.0 °F 82% 29.96 in 5.0 mi NNE 16.1 mph 28.8 mph 0.10 in Snow Light Snow
12:53 PM 36.0 °F 26.0 °F 30.0 °F 79% 29.94 in 6.0 mi NNE 17.3 mph - 0.01 in   Haze
1:34 PM 35.6 °F 26.6 °F 28.4 °F 75% 29.90 in 5.0 mi NNE 13.8 mph 21.9 mph 0.00 in   Haze
1:53 PM 36.0 °F 25.3 °F 28.9 °F 76% 29.93 in 5.0 mi NNE 19.6 mph 25.3 mph 0.00 in Snow Light Snow
2:53 PM 36.0 °F 26.0 °F 30.0 °F 79% 29.90 in 5.0 mi NNE 17.3 mph 23.0 mph 0.00 in Snow Light Snow
3:38 PM 35.6 °F 25.9 °F 28.4 °F 75% 29.86 in 2.0 mi NNE 16.1 mph 24.2 mph 0.00 in Snow Light Snow
3:46 PM 35.6 °F 25.5 °F 28.4 °F 75% 29.86 in 1.5 mi NNE 17.3 mph - 0.00 in Snow Light Snow
3:53 PM 35.1 °F 23.8 °F 28.9 °F 78% 29.88 in 1.8 mi North 20.7 mph 25.3 mph 0.00 in Snow Light Snow
4:53 PM 35.1 °F 23.8 °F 28.9 °F 78% 29.86 in 1.8 mi North 20.7 mph - 0.00 in Snow Light Snow
4:56 PM 35.6 °F 24.0 °F 28.4 °F 75% 29.82 in 4.0 mi North 23.0 mph - 0.00 in Snow Light Snow
5:53 PM 35.1 °F 22.7 °F 28.0 °F 76% 29.84 in 5.0 mi North 25.3 mph - 0.00 in Snow Light Snow
5:57 PM 35.6 °F 23.7 °F 28.4 °F 75% 29.81 in 5.0 mi North 24.2 mph - 0.00 in Snow Light Snow
6:53 PM 34.0 °F 22.4 °F 27.0 °F 75% 29.84 in 7.0 mi North 20.7 mph 31.1 mph 0.00 in Snow Light Snow
7:53 PM 34.0 °F 22.4 °F 27.0 °F 75% 29.82 in 6.0 mi North 20.7 mph - 0.00 in Snow Light Snow
8:53 PM 34.0 °F 23.0 °F 27.0 °F 75% 29.87 in 6.0 mi North 18.4 mph - 0.00 in Snow Light Snow
9:53 PM 33.1 °F 22.6 °F 27.0 °F 78% 29.88 in 4.0 mi North 16.1 mph - 0.00 in Snow Light Snow
10:15 PM 33.8 °F 23.9 °F 26.6 °F 75% 29.86 in 2.5 mi North 15.0 mph - 0.00 in Snow Light Snow
10:53 PM 32.0 °F 21.2 °F 27.0 °F 82% 29.88 in 2.5 mi NNW 16.1 mph - 0.00 in Snow Light Snow
11:00 PM 32.0 °F 20.8 °F 26.6 °F 80% 29.85 in 4.0 mi NNW 17.3 mph - 0.00 in Snow Light Snow
11:53 PM 32.0 °F 21.2 °F 26.1 °F 79% 29.86 in 5.0 mi NNW 16.1 mph - 0.00 in Snow Light Snow